Stündliche Wetter La Azulita

Heute, 14 Mai, Freitag

Zeit Temperatur Niederschläge Wind Luftdruck Luftfeuchtigkeit
00:00 +18°C° 0 mm 2 m/S 657 mmHg 77%
01:00 +18°C° 0 mm 3 m/S 656 mmHg 75%
02:00 +18°C° 0 mm 3 m/S 656 mmHg 72%
03:00 +17°C° 0 mm 3 m/S 656 mmHg 70%
04:00 +17°C° 0 mm 3 m/S 656 mmHg 67%
05:00 +18°C° 0 mm 2 m/S 657 mmHg 64%
06:00 +19°C° 0 mm 2 m/S 657 mmHg 61%
07:00 +21°C° 0 mm 2 m/S 658 mmHg 59%
08:00 +23°C° 0 mm 2 m/S 658 mmHg 56%
09:00 +25°C° 0 mm 2 m/S 659 mmHg 54%
10:00 +26°C° 0 mm 2 m/S 659 mmHg 51%
11:00 +27°C° 0 mm 2 m/S 658 mmHg 52%
12:00 +27°C° 0 mm 2 m/S 658 mmHg 54%
13:00 +28°C° 0 mm 3 m/S 657 mmHg 55%
14:00 +27°C° 0.1 mm 2 m/S 657 mmHg 59%
15:00 +26°C° 0.1 mm 2 m/S 657 mmHg 63%
16:00 +26°C° 0.1 mm 2 m/S 656 mmHg 67%
17:00 +24°C° 0.3 mm 2 m/S 656 mmHg 72%
18:00 +23°C° 0.3 mm 2 m/S 656 mmHg 77%
19:00 +21°C° 0.3 mm 2 m/S 656 mmHg 82%
20:00 +20°C° 0.1 mm 2 m/S 657 mmHg 82%
21:00 +20°C° 0.1 mm 2 m/S 657 mmHg 81%
22:00 +20°C° 0.1 mm 2 m/S 657 mmHg 81%
23:00 +20°C° 0 mm 2 m/S 657 mmHg 81%

Morgen, 15 Mai, Samstag

Zeit Temperatur Niederschläge Wind Luftdruck Luftfeuchtigkeit
00:00 +19°C° 0 mm 2 m/S 657 mmHg 81%
01:00 +19°C° 0 mm 2 m/S 657 mmHg 80%
02:00 +19°C° 0 mm 2 m/S 656 mmHg 80%
03:00 +18°C° 0 mm 2 m/S 656 mmHg 81%
04:00 +18°C° 0 mm 2 m/S 656 mmHg 81%
05:00 +19°C° 0 mm 2 m/S 657 mmHg 77%
06:00 +21°C° 0 mm 1 m/S 657 mmHg 74%
07:00 +22°C° 0 mm 1 m/S 658 mmHg 70%
08:00 +23°C° 0 mm 1 m/S 658 mmHg 67%
09:00 +25°C° 0 mm 2 m/S 658 mmHg 63%
10:00 +26°C° 0 mm 2 m/S 659 mmHg 59%
11:00 +27°C° 0.1 mm 2 m/S 658 mmHg 60%
12:00 +27°C° 0.1 mm 2 m/S 658 mmHg 62%
13:00 +27°C° 0.1 mm 2 m/S 657 mmHg 63%
14:00 +26°C° 0.3 mm 2 m/S 657 mmHg 68%
15:00 +26°C° 0.3 mm 1 m/S 656 mmHg 72%
16:00 +25°C° 0.3 mm 1 m/S 656 mmHg 76%
17:00 +24°C° 0.6 mm 1 m/S 656 mmHg 79%
18:00 +23°C° 0.6 mm 1 m/S 656 mmHg 82%
19:00 +22°C° 0.6 mm 1 m/S 656 mmHg 85%
20:00 +22°C° 0.2 mm 1 m/S 657 mmHg 84%
21:00 +22°C° 0.2 mm 1 m/S 657 mmHg 82%
22:00 +20°C° 0.2 mm 2 m/S 657 mmHg 81%
23:00 +21°C° 0 mm 1 m/S 657 mmHg 81%

übermorgen, 16 Mai, Sonntag

Zeit Temperatur Niederschläge Wind Luftdruck Luftfeuchtigkeit
00:00 +21°C° 0 mm 1 m/S 657 mmHg 81%
01:00 +21°C° 0 mm 1 m/S 656 mmHg 81%
02:00 +20°C° 0 mm 1 m/S 656 mmHg 81%
03:00 +20°C° 0 mm 1 m/S 656 mmHg 82%
04:00 +20°C° 0 mm 1 m/S 656 mmHg 83%
05:00 +20°C° 0.1 mm 1 m/S 657 mmHg 81%
06:00 +21°C° 0.1 mm 1 m/S 657 mmHg 80%
07:00 +22°C° 0.1 mm 1 m/S 658 mmHg 78%
08:00 +23°C° 0 mm 1 m/S 658 mmHg 73%
09:00 +25°C° 0 mm 2 m/S 659 mmHg 68%
10:00 +26°C° 0 mm 2 m/S 659 mmHg 64%
11:00 +26°C° 0.2 mm 2 m/S 658 mmHg 65%
12:00 +26°C° 0.2 mm 2 m/S 658 mmHg 67%
13:00 +26°C° 0.2 mm 2 m/S 657 mmHg 69%
14:00 +26°C° 0.6 mm 1 m/S 657 mmHg 72%
15:00 +25°C° 0.6 mm 1 m/S 657 mmHg 74%
16:00 +25°C° 0.6 mm 1 m/S 656 mmHg 77%
17:00 +24°C° 0.7 mm 1 m/S 656 mmHg 80%
18:00 +23°C° 0.7 mm 2 m/S 657 mmHg 83%
19:00 +21°C° 0.7 mm 2 m/S 657 mmHg 86%
20:00 +21°C° 0.5 mm 2 m/S 657 mmHg 86%
21:00 +21°C° 0.5 mm 1 m/S 658 mmHg 86%
22:00 +21°C° 0.5 mm 1 m/S 658 mmHg 85%
23:00 +21°C° 0.3 mm 1 m/S 658 mmHg 86%

17 Mai, Montag

Zeit Temperatur Niederschläge Wind Luftdruck Luftfeuchtigkeit
00:00 +20°C° 0.3 mm 1 m/S 657 mmHg 87%
01:00 +20°C° 0.3 mm 1 m/S 657 mmHg 88%
02:00 +20°C° 0.4 mm 1 m/S 657 mmHg 88%
03:00 +20°C° 0.4 mm 1 m/S 657 mmHg 88%
04:00 +20°C° 0.4 mm 1 m/S 656 mmHg 88%
05:00 +20°C° 0 mm 1 m/S 657 mmHg 84%
06:00 +21°C° 0 mm 1 m/S 657 mmHg 81%
07:00 +22°C° 0 mm 1 m/S 658 mmHg 78%
08:00 +23°C° 0 mm 1 m/S 658 mmHg 73%
09:00 +25°C° 0 mm 2 m/S 659 mmHg 69%
10:00 +26°C° 0 mm 2 m/S 659 mmHg 64%
11:00 +26°C° 0.3 mm 2 m/S 658 mmHg 66%
12:00 +26°C° 0.3 mm 2 m/S 658 mmHg 68%
13:00 +26°C° 0.3 mm 2 m/S 657 mmHg 71%
14:00 +26°C° 0.7 mm 2 m/S 657 mmHg 73%
15:00 +25°C° 0.7 mm 1 m/S 657 mmHg 75%
16:00 +25°C° 0.7 mm 1 m/S 656 mmHg 77%
17:00 +24°C° 0.9 mm 1 m/S 657 mmHg 80%
18:00 +23°C° 0.9 mm 1 m/S 657 mmHg 83%
19:00 +21°C° 0.9 mm 2 m/S 657 mmHg 86%
20:00 +20°C° 0.4 mm 2 m/S 657 mmHg 86%
21:00 +20°C° 0.4 mm 2 m/S 658 mmHg 85%
22:00 +20°C° 0.4 mm 2 m/S 658 mmHg 84%
23:00 +19°C° 0.3 mm 2 m/S 658 mmHg 85%

18 Mai, Dienstag

Zeit Temperatur Niederschläge Wind Luftdruck Luftfeuchtigkeit
00:00 +19°C° 0.3 mm 2 m/S 657 mmHg 85%
01:00 +18°C° 0.3 mm 2 m/S 657 mmHg 85%
02:00 +18°C° 0.2 mm 2 m/S 657 mmHg 85%
03:00 +18°C° 0.2 mm 2 m/S 657 mmHg 84%
04:00 +18°C° 0.2 mm 2 m/S 657 mmHg 84%
05:00 +20°C° 0 mm 1 m/S 657 mmHg 81%
06:00 +21°C° 0 mm 1 m/S 658 mmHg 78%
07:00 +22°C° 0 mm 1 m/S 658 mmHg 75%
08:00 +23°C° 0.1 mm 1 m/S 659 mmHg 73%
09:00 +24°C° 0.1 mm 1 m/S 659 mmHg 71%
10:00 +25°C° 0.1 mm 2 m/S 659 mmHg 68%
11:00 +25°C° 0.6 mm 1 m/S 659 mmHg 69%
12:00 +25°C° 0.6 mm 1 m/S 658 mmHg 70%
13:00 +25°C° 0.6 mm 1 m/S 658 mmHg 71%
14:00 +25°C° 1.4 mm 1 m/S 657 mmHg 74%
15:00 +24°C° 1.4 mm 1 m/S 657 mmHg 77%
16:00 +24°C° 1.4 mm 1 m/S 656 mmHg 80%
17:00 +23°C° 1.4 mm 1 m/S 657 mmHg 82%
18:00 +22°C° 1.4 mm 1 m/S 657 mmHg 84%
19:00 +20°C° 1.4 mm 2 m/S 657 mmHg 86%
20:00 +20°C° 0.4 mm 2 m/S 657 mmHg 86%
21:00 +20°C° 0.4 mm 2 m/S 657 mmHg 85%
22:00 +20°C° 0.4 mm 2 m/S 658 mmHg 85%
23:00 +20°C° 0.2 mm 2 m/S 657 mmHg 84%

19 Mai, Mittwoch

Zeit Temperatur Niederschläge Wind Luftdruck Luftfeuchtigkeit
00:00 +20°C° 0.2 mm 2 m/S 657 mmHg 84%
01:00 +20°C° 0.2 mm 2 m/S 657 mmHg 83%
02:00 +20°C° 0.1 mm 1 m/S 657 mmHg 84%
03:00 +20°C° 0.1 mm 1 m/S 657 mmHg 85%
04:00 +20°C° 0.1 mm 1 m/S 657 mmHg 86%
05:00 +20°C° 0 mm 1 m/S 657 mmHg 85%
06:00 +21°C° 0 mm 1 m/S 657 mmHg 83%
07:00 +21°C° 0 mm 1 m/S 658 mmHg 82%
08:00 +23°C° 0 mm 1 m/S 658 mmHg 76%
09:00 +24°C° 0 mm 1 m/S 659 mmHg 70%
10:00 +26°C° 0 mm 2 m/S 659 mmHg 64%
11:00 +26°C° 0.6 mm 2 m/S 659 mmHg 66%
12:00 +26°C° 0.6 mm 2 m/S 658 mmHg 68%
13:00 +26°C° 0.6 mm 2 m/S 658 mmHg 71%
14:00 +25°C° 1.2 mm 2 m/S 657 mmHg 74%
15:00 +24°C° 1.2 mm 2 m/S 657 mmHg 77%
16:00 +24°C° 1.2 mm 1 m/S 656 mmHg 81%
17:00 +23°C° 0.7 mm 1 m/S 657 mmHg 82%
18:00 +22°C° 0.7 mm 1 m/S 657 mmHg 83%
19:00 +21°C° 0.7 mm 1 m/S 657 mmHg 85%
20:00 +21°C° 0.2 mm 1 m/S 657 mmHg 83%
21:00 +20°C° 0.2 mm 2 m/S 657 mmHg 82%
22:00 +20°C° 0.2 mm 2 m/S 658 mmHg 81%
23:00 +19°C° 0 mm 2 m/S 657 mmHg 81%
Mehr zeigen

Wir brauchen deine Erlaubnis

Meteoprog und unser Service Anbieter werden persönliche Daten aufbewahren, so wie Cookies, Geräte Bezeichnung oder ähnliche Technologien von deinem Gerät und Prozess, so wie Persönliche Daten Inhalte und Werbungen, genauso wie social Media und den Verkehr zu analysieren.

  • Aufbewahrung und/oder Zugang zu deiner Geräte Informationen.

    Cookies, Geräte Bezeichnung oder andere Informationen, können aufbewahrt oder Zugang zu deinem Gerät erhalten, für den Grund, der oben angegeben wird.

  • Personalisierte Werbung und Inhalte, Messungen, Einblick in das Publikum und Produkt Entwicklung.

    Werbungen und Inhalte können personalisiert werden, basierend auf ein Profil. Mehr Daten können besser personalisierte Werbungen und Inhalte hinzufügen. Werbung und Inhalte können gezeigt und gemessen werden. Einblicke über das Publikum, welche die Werbung gesehen haben und den Inhalt, können abgeleitet werden. So wie Daten können genutzt werden, um es zu verbessern oder die Benutzer Erfahrung zu verbessern das System und die Software.

Wenn du “Ich stimme zu” klickst, erlaubst du uns, die Cookies zu benutzen die Geräte Bezeichnung, den Web oder ähnliche Technologien zu benutzen. Deine Settings, können in deinem Gerät bei deinem Browser geändert werden.

Für den bestimmten Zweck, berechtigten Interessen beruhen darauf, mehr als auf den Inhalt. Du kannst mehr darüber in unseren Privaten und Cookie Politik lesen.